Weather in Dourados

Brazil     22°19′13″S   55°01′50″W
temp.,
°C
wind,
m/s
gust,
m/s
humid.,
%
clouds,
%
prec.,
mm/h
press.,
hPa
HPBL,
m
17 june, thu
thu1723:00+17s3769100 0.0 1020273
02:00+15sse3676100 0.0 1019270
05:00+15s3672100 0.0 1019321
08:00+15s3571100 0.0 1022305
11:00+17s335691 0.0 1022551
14:00+19s3352100 0.0 1020779
17:00+15s3665100 0.0 1020263
20:00+14sse3666100 0.0 1021294
18 june, fri
fri1823:00+14sse3666100 0.0 1021299
02:00+14sse3666100 0.0 1020300
05:00+13sse256697 0.0 1020244
08:00+13s2465100 0.0 1023196
11:00+16se2362100 0.0 1023418
14:00+16ese126498 0.0 1020332
17:00+16ese2470100 0.0 1019118
20:00+15ese357621 0.0 1020174
19 june, sat
sat1923:00+14se228648 0.0 101965
02:00+14se2388100 0.0 1018114
05:00+14ssw1288100 0.0 101953
08:00+15wsw2384100 0.0 1021130
11:00+16sw3475100 0.0 1021347
14:00+16sw4575100 0.0 1020482
17:00+14ssw3582100 0.0 1020375
20:00+13ssw3684100 0.0 1021365
20 june, sun
sun2023:00+13s3586100 0.0 1021314
02:00+12s2487100 0.0 1020279
05:00+13s2486100 0.0 1020246
08:00+13sse2383100 0.0 1022294
11:00+17e2265100 0.0 1021525
14:00+22e1251100 0.0 1017888
17:00+18se34675 0.0 101773
20:00+15ese378116 0.0 1018130
21 june, mon
mon2123:00+14ene258786 0.0 1017112
02:00+13ne2590100 0.0 101688
05:00+13ne2293100 0.0 101628
08:00+17ne357363 0.0 1018243
11:00+25nne4545100 0.0 1017796
14:00+29nnw47365 0.0 10131564
17:00+24n225095 0.0 101312
20:00+19sw366920 0.0 101598